Tracking 28052 objects as of 23-Sep-2023
HD Live streaming from Space Station
objects crossing your sky now

OBJECT B

Track OBJECT B now!
10-day predictions


NORAD ID: 47692
Int'l Code: 2021-014B
Perigee: 1,040.6 km
Apogee: 1,163.2 km
Inclination: 63.4 °
Period: 107.2 minutes
Semi major axis: 7472 km
RCS: Unknown
Launch date: February 24, 2021
Source: People's Republic of China (PRC)
Launch site: Jiuquan Satellite Launch Center, China (JSC)

Note: This is a ROCKET BODY
Your satellite tracking list
Your tracking list is empty




NASA's NSSDC Master Catalog

Two Line Element Set (TLE):
1 47692U 21014B   23266.12045056  .00000094  00000-0  31057-3 0  9990
2 47692  63.4068 247.8623 0082025 356.8606   3.1894 13.43909598126443
Source of the keplerian elements: AFSPC